DW7589 Weather Reports


time (UTC)temp
F
wind
direction
speed
knots
gust
knots
rain 1hr
in
rain 24hr
in
rain mn
in
humidity
%
barometer
mb
20200218211502 51 348 5.2 11.3 0.00 0.00 0.00 76 1020.0
20200218210502 51 347 4.3 10.4 0.00 0.00 0.00 77 1019.7
20200218210002 51 349 4.3 11.3 0.00 0.00 0.00 78 1019.7
20200218205503 51 349 5.2 11.3 0.00 0.00 0.00 78 1019.6
20200218205002 51 347 5.2 13.0 0.00 0.00 0.00 78 1019.7
20200218204503 51 338 5.2 13.0 0.00 0.00 0.00 78 1019.8
20200218204002 51 337 7.0 14.8 0.00 0.00 0.00 77 1019.9
20200218203502 51 342 6.1 14.8 0.00 0.00 0.00 76 1019.7
20200218202503 51 344 7.0 13.9 0.00 0.00 0.00 74 1019.1
20200218200003 52 341 4.3 15.6 0.00 0.00 0.00 73 1019.3
20200218195502 52 343 6.1 14.8 0.00 0.00 0.00 73 1019.2
20200218195001 52 346 6.1 14.8 0.00 0.00 0.00 71 1019.2
20200218194003 52 343 7.0 16.5 0.00 0.00 0.00 73 1019.2
20200218193502 52 342 7.0 16.5 0.00 0.00 0.00 72 1018.9
20200218193002 52 342 7.0 15.6 0.00 0.00 0.00 72 1019.1
20200218192002 53 339 7.0 15.6 0.00 0.00 0.00 72 1019.0
20200218185502 53 346 7.0 15.6 0.00 0.00 0.00 77 1018.7
20200218184002 53 346 6.1 12.2 0.00 0.00 0.00 80 1018.9
20200218183502 53 345 5.2 12.2 0.00 0.00 0.00 81 1018.8
20200218183002 53 343 5.2 13.0 0.00 0.00 0.00 83 1019.3
20200218182002 53 343 5.2 10.4 0.00 0.00 0.00 88 1019.2
20200218181502 52 343 6.1 13.9 0.00 0.00 0.00 90 1019.3
20200218180503 52 342 5.2 13.9 0.00 0.00 0.00 92 1019.4
20200218175503 53 351 5.2 13.0 0.00 0.00 0.00 93 1018.9
20200218175002 53 349 5.2 13.0 0.00 0.00 0.00 93 1018.7
20200218174502 53 346 5.2 12.2 0.00 0.00 0.00 93 1018.4
20200218173002 55 341 4.3 13.9 0.00 0.00 0.00 93 1019.0
20200218172502 55 343 6.1 13.9 0.00 0.00 0.00 92 1019.0
20200218172002 56 340 6.1 13.9 0.00 0.00 0.00 92 1018.8
20200218171002 58 342 5.2 11.3 0.00 0.00 0.00 93 1018.4
20200218165501 58 340 4.3 9.6 0.00 0.00 0.00 92 1018.2
20200218165002 58 343 4.3 9.6 0.00 0.00 0.00 92 1018.3
20200218164003 58 346 4.3 8.7 0.00 0.00 0.00 91 1018.2
20200218163502 58 338 4.3 11.3 0.00 0.00 0.00 91 1018.1
20200218163002 58 334 5.2 11.3 0.00 0.00 0.00 90 1018.5
20200218162502 59 335 5.2 10.4 0.00 0.00 0.00 90 1018.5
20200218161503 59 329 4.3 8.7 0.00 0.00 0.00 89 1018.3
20200218161003 59 333 4.3 10.4 0.00 0.00 0.00 88 1018.0
20200218160502 59 337 4.3 11.3 0.00 0.00 0.00 88 1017.8
20200218155502 59 338 3.5 8.7 0.00 0.00 0.00 87 1017.3
20200218155002 59 335 4.3 9.6 0.00 0.00 0.00 86 1017.3
20200218153502 60 336 3.5 10.4 0.00 0.00 0.00 85 1017.1
20200218152503 60 335 3.5 9.6 0.00 0.00 0.00 85 1016.7
20200218152002 60 333 5.2 11.3 0.00 0.00 0.00 84 1016.7
20200218151503 60 337 5.2 11.3 0.00 0.00 0.00 84 1016.5
20200218150502 60 336 5.2 10.4 0.00 0.00 0.00 83 1016.4
20200218145502 60 336 4.3 9.6 0.00 0.00 0.00 82 1016.2
20200218145002 60 334 3.5 9.6 0.00 0.00 0.00 82 1016.1
20200218144502 60 338 3.5 7.8 0.00 0.00 0.00 83 1015.7
20200218143503 60 341 2.6 8.7 0.00 0.00 0.00 83 1015.7
20200218143002 60 343 1.7 5.2 0.00 0.00 0.00 83 1015.9
20200218141502 60 346 1.7 4.3 0.00 0.00 0.00 83 1015.5
20200218141002 60 338 1.7 4.3 0.00 0.00 0.00 84 1015.5
20200218140002 60 327 1.7 5.2 0.00 0.00 0.00 84 1015.2
20200218135502 60 331 2.6 7.8 0.00 0.00 0.00 84 1015.2
20200218135002 60 331 2.6 7.8 0.00 0.00 0.00 84 1015.0
20200218133502 60 337 1.7 4.3 0.00 0.00 0.00 87 1014.6
20200218132003 61 339 0.9 3.5 0.00 0.00 0.00 90 1014.1
20200218131502 62 17 0.9 3.5 0.00 0.00 0.00 90 1014.1
20200218131002 64 0 0.0 2.6 0.00 0.00 0.00 92 1013.9
20200218130502 65 0 0.0 1.7 0.00 0.00 0.00 94 1013.9
20200218130002 65 0 0.0 0.9 0.00 0.00 0.00 94 1013.6
20200218125502 65 0 0.0 1.7 0.00 0.00 0.00 94 1013.4
20200218124503 66 0 0.0 0.9 0.00 0.00 0.00 93 1013.3
20200218123002 66 0 0.0 1.7 0.00 0.00 0.00 93 1013.3
20200218122502 66 155 0.9 2.6 0.00 0.00 0.00 93 1013.2
20200218121502 66 154 0.9 2.6 0.00 0.00 0.00 93 1013.4
20200218121002 66 154 1.7 4.3 0.00 0.00 0.00 93 1013.2
20200218120502 66 156 1.7 4.3 0.00 0.00 0.00 93 1013.0
20200218120002 66 161 0.9 3.5 0.00 0.00 0.00 93 1013.2
20200218115002 66 161 0.9 1.7 0.00 0.00 0.00 93 1013.2
20200218114502 66 161 1.7 3.5 0.00 0.00 0.00 93 1013.1
20200218113503 66 193 1.7 4.3 0.00 0.00 0.00 93 1012.5
20200218113003 67 198 1.7 2.6 0.00 0.00 0.00 93 1012.7
20200218112502 67 198 0.9 2.6 0.00 0.00 0.00 93 1012.6
20200218112002 67 0 0.0 1.7 0.00 0.00 0.00 92 1012.6
20200218110503 67 0 0.0 0.9 0.00 0.00 0.00 92 1012.6
20200218110002 67 0 0.0 0.0 0.00 0.00 0.00 92 1012.4
20200218102002 67 198 0.9 2.6 0.00 0.00 0.00 92 1012.5
20200218101502 67 198 0.9 1.7 0.00 0.00 0.00 92 1012.3
20200218100002 67 198 0.9 2.6 0.00 0.00 0.00 91 1011.7
20200218095502 67 0 0.0 1.7 0.00 0.00 0.00 91 1011.7
20200218095002 67 0 0.0 1.7 0.00 0.00 0.00 91 1011.7
20200218094502 67 0 0.0 2.6 0.00 0.00 0.00 91 1011.6
20200218093001 68 191 2.6 4.3 0.00 0.00 0.00 91 1011.7
20200218092502 68 191 2.6 5.2 0.00 0.00 0.00 91 1011.6
20200218091002 68 192 3.5 5.2 0.00 0.00 0.00 91 1011.6
20200218090002 68 193 3.5 5.2 0.00 0.00 0.00 91 1011.5
20200218084502 68 188 3.5 5.2 0.00 0.00 0.00 91 1011.7
20200218083002 68 182 4.3 7.8 0.00 0.00 0.00 90 1011.4
20200218082002 68 177 4.3 7.0 0.00 0.00 0.00 90 1011.4
20200218081502 68 171 5.2 8.7 0.00 0.00 0.00 91 1011.3
20200218080002 68 186 4.3 7.8 0.00 0.00 0.00 91 1011.3
20200218075003 68 172 3.5 5.2 0.00 0.00 0.00 91 1011.2
20200218074004 68 177 2.6 6.1 0.00 0.00 0.00 91 1011.3
20200218072002 67 175 1.7 3.5 0.00 0.00 0.00 91 1010.9
20200218071502 67 176 2.6 3.5 0.00 0.00 0.00 91 1011.0
20200218071002 67 176 3.5 6.1 0.00 0.00 0.00 91 1011.1
20200218070003 68 173 4.3 6.1 0.00 0.00 0.00 90 1010.9
20200218065003 68 171 4.3 7.0 0.00 0.00 0.00 90 1010.9
20200218064502 68 173 5.2 7.0 0.00 0.00 0.00 90 1010.9
20200218064006 68 173 5.2 7.8 0.00 0.00 0.00 90 1011.0
20200218063502 68 173 5.2 7.8 0.00 0.00 0.00 90 1010.9
20200218062002 68 172 4.3 7.8 0.00 0.00 0.00 89 1010.9
20200218060003 68 172 4.3 7.0 0.00 0.00 0.00 89 1010.6
20200218055502 68 174 4.3 7.0 0.00 0.00 0.00 89 1010.7
20200218054002 69 176 4.3 7.0 0.00 0.00 0.00 89 1010.7
20200218052502 69 173 5.2 7.8 0.00 0.00 0.00 88 1010.6
20200218052003 69 173 5.2 7.0 0.00 0.00 0.00 88 1010.5
20200218051502 68 173 4.3 7.0 0.00 0.00 0.00 88 1010.4
20200218050502 68 175 4.3 6.1 0.00 0.00 0.00 88 1010.4
20200218045502 69 175 4.3 8.7 0.00 0.00 0.00 87 1010.3
20200218044502 69 171 4.3 6.1 0.00 0.00 0.00 87 1010.3
20200218044002 69 172 4.3 6.1 0.00 0.00 0.00 87 1010.4
20200218042502 69 173 4.3 8.7 0.00 0.00 0.00 87 1010.2
20200218041503 69 172 4.3 6.1 0.00 0.00 0.00 87 1010.2
20200218040004 69 172 5.2 7.0 0.00 0.00 0.00 87 1010.2
20200218035502 69 171 3.5 6.1 0.00 0.00 0.00 87 1010.3
20200218035003 69 171 2.6 5.2 0.00 0.00 0.00 86 1010.1
20200218034502 69 172 1.7 4.3 0.00 0.00 0.00 86 1010.1
20200218033502 69 171 1.7 5.2 0.00 0.00 0.00 86 1010.0
20200218032002 69 171 3.5 5.2 0.00 0.00 0.00 86 1009.8
20200218030002 70 171 3.5 6.1 0.00 0.00 0.00 85 1009.7
20200218025502 70 171 4.3 6.1 0.00 0.00 0.00 84 1009.8
20200218024502 70 171 4.3 5.2 0.00 0.00 0.00 84 1009.7
20200218023002 70 172 3.5 6.1 0.00 0.00 0.00 83 1009.6
20200218022502 70 172 3.5 6.1 0.00 0.00 0.00 83 1009.6
20200218022003 70 172 4.3 5.2 0.00 0.00 0.00 82 1009.6
20200218020002 71 174 5.2 7.0 0.00 0.00 0.00 81 1009.4
20200218014503 72 177 5.2 7.8 0.00 0.00 0.00 80 1009.1
20200218014002 72 176 5.2 7.8 0.00 0.00 0.00 80 1009.0
20200218013503 72 172 4.3 7.0 0.00 0.00 0.00 80 1009.0
20200218012502 72 171 5.2 7.0 0.00 0.00 0.00 79 1008.9
20200218012003 72 172 4.3 7.0 0.00 0.00 0.00 78 1009.0
20200218011502 72 175 4.3 7.0 0.00 0.00 0.00 78 1009.0
20200218011002 72 174 4.3 7.0 0.00 0.00 0.00 78 1008.9
20200218010502 73 169 4.3 7.0 0.00 0.00 0.00 77 1008.8
20200218010003 73 163 4.3 7.0 0.00 0.00 0.00 77 1008.8
20200218004502 73 161 3.5 5.2 0.00 0.00 0.00 75 1008.4
20200218002002 74 175 2.6 6.1 0.00 0.00 0.00 68 1008.1
20200218001502 75 176 3.5 6.1 0.00 0.00 0.00 67 1008.1
20200218001003 75 177 4.3 7.8 0.00 0.00 0.00 67 1008.1
20200217235502 76 174 4.3 7.8 0.00 0.00 0.00 66 1007.9
20200217235002 76 173 6.1 9.6 0.00 0.00 0.00 66 1007.9
20200217233502 77 172 7.0 12.2 0.00 0.00 0.00 63 1007.8
20200217233003 78 171 6.1 10.4 0.00 0.00 0.00 63 1007.7
20200217232502 78 172 6.1 9.6 0.00 0.00 0.00 64 1007.6
20200217232003 78 173 7.0 10.4 0.00 0.00 0.00 64 1007.5
20200217231503 78 173 7.0 10.4 0.00 0.00 0.00 64 1007.3
20200217230502 77 171 6.1 10.4 0.00 0.00 0.00 65 1007.3
20200217230002 77 170 6.1 10.4 0.00 0.00 0.00 65 1007.3
20200217225503 77 172 6.1 8.7 0.00 0.00 0.00 65 1007.3
20200217225002 77 172 5.2 8.7 0.00 0.00 0.00 65 1007.5
20200217224503 77 173 6.1 8.7 0.00 0.00 0.00 66 1007.5
20200217224002 77 173 6.1 10.4 0.00 0.00 0.00 65 1007.5
20200217222002 77 173 7.0 10.4 0.00 0.00 0.00 65 1007.4
20200217221002 78 173 7.0 9.6 0.00 0.00 0.00 65 1007.4
20200217220503 78 172 7.0 9.6 0.00 0.00 0.00 64 1007.3
20200217214003 78 174 7.0 11.3 0.00 0.00 0.00 64 1007.3
20200217213502 78 173 7.0 12.2 0.00 0.00 0.00 64 1007.4